Tucson, AZ

8:27 AM MST on August 17, 2019 (GMT -0700)
Tucson International

Weather History for KTUS - May, 2019

Change the Weather History Date:

Tuesday, May 14, 2019

  Actual Average Record
Temperature  
Mean Temperature 76 °F 75 °F  
Max Temperature 91 °F 91 °F 104 °F (1988)
Min Temperature 60 °F 60 °F 41 °F (1933)
Degree Days  
Heating Degree Days 0 0  
Month to date heating degree days 0 3  
Since 1 July heating degree days 1408 1509  
Cooling Degree Days 11 11  
Month to date cooling degree days 92 123  
Year to date cooling degree days 272 277  
Growing Degree Days 26 (Base 50)    
Moisture  
Dew Point 44 °F    
Average Humidity 32    
Maximum Humidity 62    
Minimum Humidity 9    
Precipitation  
Precipitation 0.00 in 0.01 in 0.13 in (1987)
Month to date precipitation 1.21 0.10  
Year to date precipitation 5.02 2.94  
Sea Level Pressure  
Sea Level Pressure 29.87 in    
Wind  
Wind Speed 5 mph (SSW)    
Max Wind Speed 13 mph    
Max Gust Speed 17 mph    
Visibility 10 miles    
Events      
T = Trace of Precipitation, MM = Missing Value Source: NWS Daily Summary

Daily Weather History Graph

Daily Weather History Graph

Search for Another Location

Airport or City:

Astronomy

May. 14, 2019 Rise Set
Actual Time 5:26 AM MST 7:13 PM MST
Civil Twilight 5:00 AM MST 7:40 PM MST
Nautical Twilight 4:27 AM MST 8:12 PM MST
Astronomical Twilight 3:53 AM MST 8:47 PM MST
Moon 2:59 PM MST (5/14) 2:59 AM MST (5/14)
Length of Visible Light 14h 40m
Length of Day
13h 46m
Waxing Gibbous, 80% of the Moon is Illuminated
May 14
Waxing Gibbous
May 18
Full
May 26
Last Quarter
Jun 3
New
Jun 9
First Quarter

Hourly Weather History & Observations

Time (MST) Temp. Dew Point Humidity Pressure Visibility Wind Dir Wind Speed Gust Speed Precip Events Conditions
12:53 AM 66.0 °F 50.0 °F 56% 29.88 in 10.0 mi SSE 9.2 mph - N/A   Clear
1:53 AM 64.0 °F 48.9 °F 58% 29.88 in 10.0 mi SE 3.5 mph - N/A   Clear
2:53 AM 62.1 °F 48.9 °F 62% 29.88 in 10.0 mi South 4.6 mph - N/A   Clear
3:53 AM 62.1 °F 46.0 °F 56% 29.89 in 10.0 mi SSE 4.6 mph - N/A   Clear
4:53 AM 61.0 °F 46.9 °F 60% 29.90 in 10.0 mi SE 6.9 mph - N/A   Clear
5:53 AM 61.0 °F 46.0 °F 58% 29.92 in 10.0 mi SSE 6.9 mph - N/A   Clear
6:53 AM 64.0 °F 46.0 °F 52% 29.93 in 10.0 mi SSE 6.9 mph - N/A   Clear
7:53 AM 70.0 °F 46.0 °F 42% 29.94 in 10.0 mi South 5.8 mph - N/A   Clear
8:53 AM 75.0 °F 46.9 °F 37% 29.94 in 10.0 mi Calm Calm - N/A   Clear
9:53 AM 79.0 °F 45.0 °F 30% 29.93 in 10.0 mi SSW 3.5 mph - N/A   Clear
10:53 AM 82.9 °F 44.1 °F 25% 29.91 in 10.0 mi NW 8.1 mph - N/A   Clear
11:26 AM 84.9 °F 43.0 °F 23% 30.03 in 10.0 mi NNW 6.9 mph - N/A   Clear
11:53 AM 86.0 °F 43.0 °F 22% 29.89 in 10.0 mi Calm Calm - N/A   Clear
12:53 PM 89.1 °F 39.9 °F 18% 29.86 in 10.0 mi Calm Calm - N/A   Clear
1:53 PM 89.1 °F 39.0 °F 17% 29.84 in 10.0 mi NNE 8.1 mph - N/A   Clear
2:53 PM 89.1 °F 39.0 °F 17% 29.81 in 10.0 mi North - - N/A   Clear
2:59 PM 89.1 °F 39.9 °F 18% 29.94 in 10.0 mi WSW 12.7 mph 16.1 mph N/A   Clear
3:38 PM 91.0 °F 39.0 °F 16% 29.92 in 10.0 mi WSW 12.7 mph 16.1 mph N/A   Clear
3:53 PM 90.0 °F 39.9 °F 17% 29.80 in 10.0 mi WSW 12.7 mph 16.1 mph N/A   Clear
4:53 PM 90.0 °F 39.0 °F 17% 29.79 in 10.0 mi North - - N/A   Clear
4:55 PM 90.0 °F 39.0 °F 17% 29.91 in 10.0 mi Calm Calm - N/A   Clear
5:53 PM 90.0 °F 39.0 °F 17% 29.78 in 10.0 mi Calm Calm - N/A   Clear
6:53 PM 88.0 °F 41.0 °F 19% 29.78 in 10.0 mi WSW 4.6 mph - N/A   Clear
7:53 PM 82.9 °F 45.0 °F 26% 29.79 in 10.0 mi West 5.8 mph - N/A   Clear
8:53 PM 82.0 °F 43.0 °F 25% 29.79 in 8.0 mi NNW 4.6 mph - N/A   Clear
9:53 PM 77.0 °F 46.0 °F 33% 29.81 in 10.0 mi Calm Calm - N/A   Clear
10:53 PM 75.0 °F 46.0 °F 36% 29.83 in 10.0 mi SW 6.9 mph - N/A   Clear
11:53 PM 73.9 °F 45.0 °F 35% 29.83 in 10.0 mi SSW 6.9 mph - N/A   Clear